Overview Statistics Trail Chart Weather Telemetry Raw packets
 

This is the latest recevied weather packets stored in our database for station/object K5MGY. If no packets are shown the sender has not sent any weather packets the latest 10 day(s).

<< 23 24 25 26 27 28 29 >>
Time Temp. Humidity Pressure Rain* Wind** Luminosity Snow
1788452518 30° C 71% 1038.2 hPa 0 mm - 107 W/m² -
1788452214 30° C 72% 1037.8 hPa 0 mm - 125 W/m² -
1788451909 30° C 71% 1038.2 hPa 0 mm - 136 W/m² -
1788451604 29.44° C 72% 1037.8 hPa 0 mm - 170 W/m² -
1788451299 29.44° C 73% 1038 hPa 0 mm - 183 W/m² -
1788450998 29.44° C 73% 1038 hPa 0 mm - 143 W/m² -
1788450693 29.44° C 73% 1038.2 hPa 0 mm - 132 W/m² -
1788450389 28.89° C 74% 1038 hPa 0 mm - 130 W/m² -
1788450085 28.89° C 75% 1038 hPa 0 mm - 130 W/m² -
1788449780 28.33° C 75% 1037.8 hPa 0 mm - 116 W/m² -
1788449476 28.33° C 76% 1038 hPa 0 mm - 102 W/m² -
1788449172 28.33° C 77% 1038 hPa 0 mm - 70 W/m² -
1788448868 28.33° C 77% 1038 hPa 0 mm - 61 W/m² -
1788448567 27.78° C 77% 1037.9 hPa 0 mm - 58 W/m² -
1788448262 27.78° C 78% 1037.8 hPa 0 mm - 52 W/m² -
1788447962 27.78° C 79% 1037.8 hPa 0 mm - 49 W/m² -
1788447657 27.78° C 79% 1038 hPa 0 mm - 43 W/m² -
1788447357 27.22° C 79% 1038 hPa 0 mm - 37 W/m² -
1788447052 27.22° C 80% 1038 hPa 0 mm - 39 W/m² -
1788446751 27.22° C 79% 1038.2 hPa 0 mm - 36 W/m² -
1788446447 27.22° C 79% 1038 hPa 0 mm - 35 W/m² -
1788446143 27.22° C 79% 1037.9 hPa 0 mm - 37 W/m² -
1788445839 27.22° C 79% 1038 hPa 0 mm - 48 W/m² -
1788445534 27.22° C 80% 1037.9 hPa 0 mm - 67 W/m² -
1788445231 27.22° C 79% 1037.8 hPa 0 mm - 77 W/m² -

* Rain latest hour (hover to see other rain measurements)
** Current wind speed in m/s (hover to see current wind gust speed)